Theta_e
311 311 311 311 312 312 312 312 312 311 311 311 311 310 310 310 310 310 310 310 311 310 310 310 310 310 310 311 311 311 313 313 314 316 315 315 317 315 314 313 313 314 313 313 313 314 314 314 316 316 317 317 317 318 318 318 317 321 331 332 321 318 319 317 319 316 318 322 314 313 315 315 316 315 315 315 314 315 315 315 315 315 315 315 315 315 314 313
310 311 311 312 312 312 312 312 311 311 311 311 310 309 309 309 309 309 310 310 310 310 310 310 310 310 310 311 311 311 313 313 313 316 315 314 314 313 314 314 315 316 315 315 314 314 315 314 316 316 317 317 317 318 317 318 316 321 332 330 322 323 317 314 315 312 314 317 314 314 314 314 316 315 315 315 314 314 315 315 314 315 315 314 315 314 314 313
311 311 311 312 312 312 312 311 311 311 311 311 309 308 308 308 308 309 310 310 310 310 310 310 310 310 310 310 311 312 313 313 314 316 315 313 314 314 314 314 314 315 316 316 315 314 315 314 316 316 316 316 316 317 316 317 316 315 325 330 324 320 315 312 313 313 315 315 314 314 314 315 315 315 315 314 313 313 315 316 314 314 315 314 315 315 314 313
311 311 311 312 312 311 311 311 311 311 310 310 308 307 307 307 308 309 310 310 310 310 310 310 310 310 310 311 311 312 314 316 316 316 314 313 314 314 314 313 314 316 317 317 316 314 314 315 316 316 317 316 316 317 315 316 316 314 321 327 318 313 314 315 314 315 315 314 315 314 314 315 315 316 315 314 314 314 314 315 315 315 315 315 314 314 314 313
311 311 311 311 311 311 311 311 310 310 309 309 308 307 307 308 308 309 310 309 310 310 310 310 310 310 310 311 311 313 317 320 318 314 313 313 314 314 313 314 316 318 318 318 317 315 315 316 317 316 317 317 316 317 316 315 316 315 316 317 313 311 315 316 315 316 315 315 315 314 315 315 315 315 314 314 316 317 315 314 316 315 315 315 315 314 314 314
311 311 311 310 310 310 310 310 309 309 308 308 307 307 307 308 308 309 309 309 310 310 310 310 310 310 310 310 311 313 317 319 316 314 313 314 314 313 313 315 317 318 318 319 318 317 317 316 317 317 316 315 315 316 317 314 316 319 316 312 312 312 315 315 315 316 315 316 315 314 315 315 315 315 315 314 315 316 315 316 316 315 315 315 315 315 314 314
310 310 310 309 309 309 309 308 308 308 307 307 307 307 307 308 308 308 309 309 310 310 310 310 310 310 310 310 311 312 316 316 315 314 314 313 313 313 314 315 317 316 317 318 318 318 317 317 317 316 315 315 314 314 316 315 315 321 319 313 314 314 314 315 315 315 315 315 315 315 315 315 315 316 315 314 315 315 315 316 316 315 315 315 315 315 314 314
308 308 308 307 307 307 307 307 307 307 307 307 307 307 307 308 308 308 309 309 309 309 310 310 310 310 310 310 311 314 316 315 315 315 314 313 313 313 314 315 316 317 317 318 318 318 317 317 317 316 315 315 315 314 314 316 316 319 319 314 315 316 315 316 315 315 316 315 315 315 315 315 315 315 314 315 316 315 315 316 316 316 315 315 315 314 313 313
307 307 307 307 307 306 307 306 307 307 307 307 307 307 307 308 308 308 309 309 309 309 309 310 310 310 310 310 312 314 315 315 315 316 315 314 314 314 315 316 317 317 317 318 318 318 317 317 316 316 316 315 315 314 313 316 317 316 316 315 315 315 315 316 316 316 316 315 315 315 315 314 314 314 315 315 315 315 315 315 315 315 315 315 314 313 313 312
307 307 307 307 307 307 307 307 307 307 307 307 307 307 308 308 308 308 309 309 309 309 309 309 309 310 310 310 313 315 315 317 317 317 316 315 315 315 317 317 317 317 317 317 317 318 317 316 317 316 316 316 315 314 313 316 316 315 314 315 315 315 315 315 316 316 316 315 315 315 315 315 313 314 317 315 314 315 315 315 314 314 314 314 314 313 313 312
307 307 307 307 308 308 307 307 307 308 307 308 308 308 308 308 308 308 309 309 309 309 309 309 309 310 310 311 315 315 316 318 318 318 318 316 317 317 317 317 317 317 317 317 317 318 317 316 317 316 317 316 315 314 314 314 315 314 315 316 316 315 315 315 314 315 315 315 315 315 314 313 312 314 317 316 315 315 314 315 314 313 314 313 313 313 312 311
308 308 308 308 308 308 308 308 308 308 308 308 308 308 308 308 308 308 308 309 309 309 309 309 309 309 310 311 313 314 316 319 318 319 318 317 317 317 317 317 317 317 317 317 317 318 317 317 317 317 318 316 315 315 315 315 314 315 315 318 321 321 320 315 313 313 314 315 315 314 315 317 317 314 316 315 314 315 313 314 314 313 313 312 312 312 312 311
310 309 309 309 309 309 309 309 309 308 308 308 308 308 308 308 308 308 308 308 309 309 309 309 309 309 311 312 312 312 315 318 319 318 318 318 317 317 317 317 317 317 317 316 317 318 317 317 317 317 316 315 316 315 315 314 313 317 314 317 324 326 325 316 311 313 313 314 314 314 319 328 327 316 314 315 314 314 313 313 313 313 312 312 312 312 311 311
311 311 311 310 310 310 310 310 310 309 309 309 309 309 308 308 308 308 308 308 308 308 308 309 309 310 312 312 312 312 313 315 318 318 318 318 317 318 317 317 317 316 317 316 317 317 317 317 317 317 315 316 316 314 320 319 317 321 314 320 326 321 329 322 310 312 314 314 313 315 320 327 329 317 312 315 314 314 313 313 313 313 312 312 312 311 311 311
311 311 311 311 311 311 311 311 310 310 310 310 310 309 309 308 309 308 308 308 308 308 308 309 310 312 313 312 311 312 312 313 316 317 318 318 318 318 317 317 317 316 317 316 317 317 317 317 316 317 314 315 316 317 328 328 326 327 317 326 329 318 332 331 310 311 316 314 312 316 321 323 323 316 313 314 313 314 313 313 313 312 312 312 311 311 311 311
310 310 310 310 310 310 310 310 310 310 310 311 310 310 309 309 309 308 308 308 308 308 309 310 311 313 314 313 312 313 313 313 315 317 318 318 318 318 317 317 317 316 317 316 317 317 317 317 315 316 314 315 321 328 335 327 329 333 320 325 331 321 327 328 314 311 313 313 312 314 321 325 322 313 312 313 312 313 312 312 313 312 312 312 311 311 310 311
310 309 309 309 309 309 309 309 309 309 309 310 310 310 310 309 309 308 308 307 308 309 310 312 314 314 314 314 314 314 313 313 315 316 317 318 318 318 317 317 316 316 317 317 317 317 316 316 315 317 315 315 320 329 330 323 326 331 321 321 329 325 323 326 324 314 309 313 315 314 316 322 322 312 311 313 312 312 311 312 313 312 312 312 311 311 311 311
310 309 309 309 308 308 308 308 308 308 309 309 309 310 310 309 309 308 308 308 309 311 311 314 315 314 314 314 314 315 314 314 315 316 317 318 318 317 316 316 317 316 317 316 316 316 315 315 317 321 319 316 319 324 324 322 326 330 326 323 325 323 321 324 327 317 311 315 316 315 316 317 318 312 311 313 312 311 312 313 312 311 312 311 311 311 311 311
309 309 309 308 308 308 308 308 308 308 308 308 309 309 309 308 308 308 308 309 310 313 314 315 313 313 315 314 313 315 315 315 315 316 317 318 317 317 317 316 317 316 316 317 316 315 315 316 318 323 322 319 319 321 321 322 327 332 331 329 329 326 324 325 327 320 313 315 317 316 316 316 316 314 312 312 312 311 311 312 311 310 311 311 311 311 311 311
309 308 308 308 308 308 308 308 308 308 308 308 308 308 309 309 310 310 310 310 310 311 313 314 313 312 315 315 314 314 315 316 316 316 317 317 317 316 317 316 316 316 315 320 320 314 315 319 322 324 323 320 319 319 320 322 324 327 328 330 329 327 327 327 327 319 311 314 321 318 316 316 316 316 312 310 311 309 309 310 310 310 310 311 311 311 311 311
309 308 308 308 308 308 308 308 307 308 308 308 307 307 309 309 311 312 312 311 310 309 310 313 314 313 314 316 315 315 316 316 316 317 317 317 317 316 316 316 317 318 316 317 317 314 316 320 322 323 320 318 318 318 318 321 321 322 325 326 325 325 327 325 323 319 312 314 323 321 317 316 315 315 312 309 309 309 309 309 310 310 310 311 311 311 311 311
309 309 308 307 308 308 308 308 308 308 307 307 307 307 308 308 310 312 313 313 312 310 310 311 313 314 314 315 316 316 316 317 317 317 317 317 317 316 316 317 320 322 317 315 317 318 319 320 320 318 315 315 318 317 316 319 318 320 323 322 324 325 323 324 323 319 314 315 324 325 320 317 316 315 312 310 309 311 312 311 312 312 311 310 311 311 311 311
309 309 308 308 307 307 308 308 308 308 307 307 306 307 308 308 310 311 313 315 316 313 311 311 311 312 314 315 316 317 316 318 318 317 317 317 316 316 315 317 320 321 319 318 322 323 323 325 320 313 313 317 320 318 316 317 317 320 322 321 324 323 322 327 326 319 316 316 320 323 319 316 316 316 315 312 311 312 312 313 313 313 312 311 311 312 312 312
309 309 308 308 308 308 308 308 309 309 307 306 306 306 309 311 311 311 312 314 317 315 312 313 312 311 313 314 315 317 317 317 317 317 318 317 316 316 315 316 318 320 319 319 321 322 324 323 315 311 316 319 320 320 319 319 321 322 322 320 322 324 323 326 325 321 323 322 319 319 321 322 321 319 318 316 313 312 313 313 314 313 312 311 311 311 311 312
310 309 309 308 308 308 309 311 311 310 307 306 306 306 309 313 314 313 313 315 318 317 313 314 315 313 311 312 315 316 317 318 317 318 318 317 317 316 316 315 318 321 320 318 319 320 321 316 313 317 318 317 320 322 322 323 324 324 324 322 321 324 324 323 323 321 326 330 321 318 324 332 330 324 321 319 317 317 314 311 312 313 312 310 310 310 310 311
312 310 309 309 308 309 311 313 312 309 307 307 306 307 310 313 316 314 315 320 319 316 315 314 315 316 313 313 315 315 317 318 317 318 318 317 317 316 317 316 316 319 318 317 318 319 319 314 317 325 322 319 321 321 322 323 322 324 326 323 320 321 322 323 323 322 328 331 320 317 326 330 327 324 324 326 325 326 319 311 309 311 311 310 310 310 310 311
314 310 309 309 309 309 312 313 311 308 308 308 306 309 311 315 316 313 314 320 317 314 317 316 314 316 314 314 315 314 317 318 317 318 317 317 317 316 319 319 316 317 315 316 320 319 319 317 319 324 324 322 321 321 323 320 322 328 324 321 321 320 321 323 324 324 326 325 319 320 326 325 324 323 322 324 326 328 325 319 313 309 309 310 309 309 310 310
316 312 310 310 309 309 311 312 311 309 308 309 307 309 313 316 315 312 314 317 314 314 318 316 313 314 315 316 315 314 316 317 318 318 317 317 317 316 318 319 318 319 315 317 322 318 317 322 321 321 323 322 321 325 324 319 324 326 318 318 321 321 323 325 325 324 322 322 322 322 321 323 326 324 320 320 321 323 323 323 318 310 308 309 308 309 309 310
318 314 312 312 310 310 311 313 313 309 309 311 310 310 315 316 313 314 316 314 314 317 317 316 315 315 316 316 315 315 315 315 317 318 316 316 317 316 318 317 316 318 316 315 322 320 316 318 318 319 323 323 324 325 320 320 323 318 313 317 320 320 323 325 326 326 325 324 324 323 321 324 328 325 322 320 322 323 321 321 318 310 310 310 308 309 309 310
319 316 314 313 312 310 311 313 313 310 311 313 312 313 316 315 314 315 314 313 317 320 315 314 317 315 316 316 315 316 315 315 315 315 315 315 315 315 317 316 315 320 320 316 321 321 315 312 313 317 320 319 321 317 313 316 317 313 318 324 325 325 326 326 325 324 326 326 325 325 324 324 327 326 324 322 323 324 321 323 322 311 308 310 309 309 310 310
319 317 315 314 313 310 311 313 312 310 313 314 314 316 316 318 319 316 314 312 314 318 315 315 317 316 316 317 317 317 316 315 314 315 316 316 316 316 316 317 317 321 323 320 321 320 316 315 315 315 315 313 318 317 312 311 311 316 328 329 327 328 326 326 325 324 327 327 323 322 321 322 325 325 324 322 322 322 320 324 327 316 308 309 309 309 309 309
319 317 315 315 314 312 311 312 311 311 314 315 315 316 316 320 321 318 316 311 312 319 319 318 318 317 317 318 319 318 317 317 314 315 318 317 317 317 316 320 320 321 323 322 321 320 320 321 316 313 313 314 321 323 316 313 313 321 329 327 326 328 326 326 325 322 324 323 317 316 318 320 323 323 322 321 320 321 317 316 318 314 310 311 310 309 309 309
319 318 317 316 317 314 311 311 312 313 315 315 315 317 318 320 320 318 317 313 314 318 319 319 318 318 317 318 319 317 317 319 316 315 317 317 318 317 317 320 320 322 326 322 320 321 323 322 317 316 316 315 319 323 321 319 318 320 324 325 327 327 326 327 324 319 321 321 314 313 317 321 322 322 322 321 318 315 312 310 312 312 311 312 311 310 309 309
320 318 318 318 318 318 314 312 312 314 316 316 315 317 320 320 318 317 316 314 317 318 318 320 318 317 317 319 321 318 318 319 316 316 318 318 319 319 319 319 318 322 326 321 320 322 325 324 321 320 319 317 318 319 322 323 318 318 321 323 325 326 328 330 328 326 326 322 315 312 318 324 326 325 320 314 310 308 309 310 310 311 312 312 311 310 309 308
321 320 319 318 319 319 316 312 312 314 316 316 316 318 319 318 317 316 316 316 321 321 319 318 318 319 319 321 321 318 318 320 317 317 319 319 320 319 319 319 316 320 325 322 321 321 322 326 324 317 314 316 317 316 319 322 320 317 319 323 324 326 328 327 323 321 321 321 317 314 319 323 324 322 314 309 308 307 307 307 308 310 310 310 310 309 308 309
320 320 318 318 319 319 317 313 312 315 316 316 317 318 318 317 316 316 316 317 322 322 319 319 321 322 320 320 321 317 317 319 318 318 319 318 319 319 319 319 316 317 320 320 323 323 323 326 320 313 314 314 315 315 315 318 322 319 318 322 321 319 322 325 320 314 316 322 321 318 320 322 321 320 316 314 315 313 309 306 306 306 307 307 308 309 309 309
318 319 318 317 318 319 318 314 313 315 317 316 318 318 318 317 316 317 317 316 319 320 320 321 322 322 322 320 321 319 318 319 318 319 320 318 320 320 318 319 316 315 317 319 323 324 325 326 317 313 318 313 309 313 312 311 317 321 321 321 317 316 321 326 324 320 320 323 322 319 320 321 320 322 320 317 317 316 315 312 306 303 303 304 306 309 310 309
314 316 317 317 318 319 318 315 314 315 317 317 317 318 318 317 315 316 316 316 318 319 320 320 318 321 322 321 321 319 318 320 318 319 320 319 320 321 318 319 317 314 315 316 321 322 322 325 319 312 316 314 309 314 317 312 312 318 321 318 319 324 324 323 324 325 324 324 324 321 318 318 318 320 321 318 320 322 319 316 312 307 302 302 305 308 309 309
311 313 316 316 317 318 317 316 315 316 317 317 317 317 318 318 316 316 315 316 318 318 318 318 316 319 321 321 321 319 318 320 318 318 321 319 320 319 317 319 319 314 314 315 320 322 320 324 322 312 311 313 313 316 320 318 312 313 315 315 318 323 322 322 323 323 324 325 325 323 321 320 318 319 321 320 322 324 320 318 317 309 302 303 306 308 309 309
312 313 315 315 315 317 317 315 315 316 317 318 316 315 317 317 316 316 316 316 317 317 317 317 316 319 321 319 320 319 318 319 317 318 320 319 319 319 316 318 320 316 314 314 318 321 319 320 322 314 310 314 317 318 319 320 316 315 317 318 317 317 318 321 321 321 323 325 325 325 323 322 322 320 319 318 318 320 320 319 316 308 304 306 308 310 311 311
312 312 313 314 315 316 316 315 315 316 317 316 315 314 315 316 316 316 316 316 317 317 316 317 317 318 320 319 319 319 319 318 317 318 319 318 319 321 317 316 319 317 315 316 318 320 320 321 323 319 313 316 320 317 314 316 318 317 318 319 318 317 318 321 321 319 320 321 324 325 321 323 327 320 316 318 318 315 313 314 312 308 306 308 310 311 313 312
312 311 312 314 314 314 315 315 315 316 316 314 314 314 314 315 316 316 316 316 318 318 317 318 318 318 319 319 319 319 319 319 318 317 319 318 318 321 318 315 316 316 316 318 318 317 319 321 323 320 316 316 318 313 308 311 316 316 317 319 318 317 318 321 322 320 318 318 319 320 320 322 324 319 315 315 313 308 308 308 308 308 308 308 311 312 313 313
311 310 312 313 313 313 315 316 315 315 314 312 312 313 313 314 315 316 317 317 318 319 319 319 320 318 318 319 319 319 319 319 318 318 319 319 318 318 316 314 315 315 316 319 318 316 317 321 322 321 318 316 317 313 308 310 314 316 317 319 318 318 318 320 322 320 319 320 318 319 322 320 319 318 310 304 304 305 307 308 307 307 308 308 310 311 312 312
311 310 310 311 312 313 315 316 315 314 312 311 312 312 313 313 314 315 317 317 317 319 319 319 319 318 318 320 320 318 319 320 319 318 318 320 318 315 314 314 315 316 317 319 319 317 319 322 323 323 322 320 318 317 313 312 314 316 318 317 316 317 318 319 318 317 318 320 319 320 322 319 322 321 309 305 309 309 306 307 308 307 308 309 310 310 311 311
311 310 309 309 311 313 316 315 314 313 311 310 311 311 312 312 313 314 316 316 316 318 319 319 319 318 319 321 319 318 318 319 320 319 318 319 317 312 312 314 314 315 316 316 316 316 320 323 321 322 324 323 322 321 319 315 313 316 318 316 315 316 317 318 317 317 318 319 318 320 321 319 322 321 313 313 318 316 310 309 309 308 308 309 310 311 311 311
311 311 310 309 310 312 313 312 311 311 310 310 310 310 310 311 312 313 314 316 316 316 317 319 318 318 320 321 319 319 319 318 320 321 319 319 319 313 310 312 313 314 315 315 315 316 320 323 321 321 323 322 323 323 320 317 315 316 317 316 315 315 316 317 318 318 319 318 318 319 319 320 321 319 317 318 320 322 318 310 307 310 309 308 310 311 311 311
311 311 310 310 310 310 310 309 309 309 309 309 310 310 310 311 312 312 313 315 316 316 317 318 318 319 321 320 319 320 319 318 320 321 319 318 319 313 308 309 312 313 314 315 315 318 322 322 320 321 321 321 325 324 318 317 317 316 316 316 315 315 315 316 318 319 320 320 320 319 318 320 320 318 320 322 321 325 320 309 308 311 310 308 309 309 310 310
310 311 310 310 311 311 309 308 308 308 309 309 309 309 310 310 311 312 313 313 314 316 317 318 318 319 320 320 320 320 320 319 319 319 319 318 317 313 310 310 310 310 313 315 315 318 322 321 320 321 320 320 324 323 317 317 318 317 316 316 315 315 315 316 317 318 319 320 320 321 320 320 318 317 320 321 318 319 317 313 312 312 311 309 308 307 309 309
309 310 310 310 311 311 309 309 308 308 308 308 308 308 309 310 310 311 312 313 313 314 316 317 318 318 319 320 321 320 320 320 319 319 318 318 317 315 314 314 312 309 312 317 316 315 319 321 320 320 319 319 321 320 317 317 318 317 317 316 315 315 315 315 316 316 317 318 318 320 321 320 317 318 321 319 314 312 312 312 312 312 312 311 308 307 309 309
307 308 308 308 309 308 308 308 308 308 308 307 308 308 308 309 310 310 311 313 313 313 315 317 317 318 318 318 319 321 320 320 320 320 319 318 317 315 316 318 317 312 310 315 317 314 317 321 319 318 319 319 318 318 317 317 318 318 317 316 314 314 314 314 315 315 316 317 317 317 319 318 316 316 317 314 311 310 310 309 310 312 313 310 307 308 308 309
306 307 307 307 307 307 308 309 309 310 309 307 308 308 308 308 309 310 311 312 313 313 314 316 317 317 318 318 319 320 319 319 320 318 317 317 316 315 315 315 315 312 311 313 316 315 316 318 316 317 320 320 318 317 316 315 316 317 317 317 314 313 314 314 314 315 315 316 317 316 317 318 316 315 313 310 309 308 307 308 309 311 312 310 308 308 308 308
304 305 305 305 306 307 308 310 310 311 310 308 308 308 308 308 308 309 311 311 312 313 313 314 315 316 317 317 318 318 318 318 318 317 316 316 315 314 314 311 311 312 312 313 315 314 315 317 316 317 320 320 318 317 315 314 316 318 318 318 315 313 313 313 314 314 315 316 317 317 317 316 316 316 315 314 313 309 307 308 310 311 311 310 309 308 308 308
Wind_Speed
17 16 15 15 14 13 13 12 11 12 12 13 12 12 12 12 13 13 13 13 10 9 7 6 4 4 4 4 5 4 4 5 4 3 3 3 5 4 4 4 3 3 2 2 4 3 2 3 3 2 3 4 5 5 5 5 4 3 3 4 3 3 3 5 7 7 4 3 6 8 8 6 4 6 7 4 4 6 6 6 6 7 8 10 11 11 16 16
17 16 16 15 14 14 13 13 12 13 13 13 13 12 12 12 13 13 14 12 10 8 7 6 4 4 4 4 4 4 5 6 4 2 3 3 6 6 7 6 5 3 2 1 2 3 2 3 3 3 4 5 5 4 4 5 5 4 3 4 3 5 4 4 7 9 4 3 9 8 8 8 6 8 8 3 3 6 5 4 6 7 9 11 11 14 16 16
17 17 16 15 15 14 14 13 13 13 13 13 12 12 12 13 13 14 13 12 10 8 7 6 5 4 4 4 4 4 5 6 3 1 1 4 9 10 9 7 5 4 3 2 1 2 2 3 2 3 5 5 5 5 5 6 4 2 4 3 4 6 3 3 6 11 7 5 11 8 7 8 7 9 7 4 4 5 6 7 8 9 12 13 13 15 16 15
18 17 17 16 15 15 14 14 14 14 13 13 12 12 13 13 14 14 13 12 10 8 7 6 5 5 4 4 4 4 5 4 3 2 3 9 12 12 9 6 4 4 3 3 1 1 2 2 2 2 4 4 4 4 5 6 3 1 4 3 5 6 3 3 6 8 8 9 12 9 5 5 8 9 7 6 5 4 10 13 12 11 13 14 15 15 16 15
18 17 17 16 16 15 15 14 14 14 13 13 13 13 13 13 14 13 13 11 10 8 7 6 5 5 4 4 4 4 2 3 2 5 6 11 13 11 8 4 3 4 4 3 1 0 2 1 2 2 3 3 4 4 3 6 4 3 2 1 6 7 3 5 7 7 9 10 9 8 6 6 8 8 9 9 6 5 8 10 12 13 12 13 14 14 14 13
17 17 16 16 15 15 15 14 14 14 14 13 13 13 13 13 13 13 12 11 10 9 8 7 6 5 5 5 5 4 1 1 3 7 8 11 12 9 6 2 2 4 4 3 1 2 1 0 1 2 3 2 3 3 2 4 3 2 1 1 6 6 2 7 10 9 10 9 8 8 6 7 7 6 9 12 11 9 8 7 8 11 11 12 13 13 12 11
16 16 15 15 15 14 14 14 14 14 13 13 13 13 13 13 13 12 12 11 10 9 8 7 6 6 5 5 5 5 5 3 5 8 8 10 10 9 6 2 3 5 4 2 2 2 2 1 2 3 4 3 2 2 3 4 3 4 1 0 4 5 5 9 11 9 9 8 8 8 7 8 8 5 6 11 14 13 11 8 7 10 11 13 13 12 11 10
16 16 15 15 15 14 14 13 13 13 13 13 13 13 13 13 13 12 12 11 11 10 9 8 7 6 6 6 6 5 6 5 7 8 8 9 8 7 5 4 6 6 4 2 3 3 2 2 3 4 3 2 2 1 2 3 3 4 2 3 3 3 5 9 9 8 8 6 7 8 8 8 8 5 5 10 12 12 11 9 8 10 12 13 13 12 11 11
17 16 16 15 15 14 14 13 13 13 13 13 13 13 13 13 13 12 12 12 11 10 9 8 7 7 6 7 5 4 6 6 9 9 8 8 7 5 5 6 5 4 3 2 3 3 2 3 4 2 2 2 3 2 3 2 2 1 4 4 3 2 4 8 9 9 9 8 7 7 6 6 6 5 7 11 12 11 11 11 11 13 13 13 12 12 11 10
17 16 16 15 15 14 14 13 13 13 13 13 13 13 13 13 13 13 13 12 11 10 9 8 8 7 7 7 5 3 5 8 11 10 9 8 6 5 5 3 3 2 1 1 2 2 2 4 4 4 3 3 3 2 3 2 0 2 4 2 2 3 4 6 10 11 10 9 9 8 5 4 4 4 6 9 12 14 14 14 15 14 14 14 14 13 12 11
17 17 16 16 15 15 14 14 13 13 13 13 12 12 12 13 13 13 13 12 11 10 9 9 9 8 8 8 7 5 4 9 12 10 10 9 7 6 4 3 2 2 1 1 2 2 2 3 3 3 2 2 2 2 3 2 3 2 2 2 5 6 7 7 10 12 9 7 10 9 4 2 3 4 6 8 12 15 16 16 16 16 15 15 15 14 13 12
17 17 17 17 16 16 15 15 14 14 13 13 13 13 13 13 13 13 13 12 11 11 10 10 9 9 9 9 12 10 5 9 12 11 10 9 8 7 4 4 4 3 2 1 2 2 2 3 2 1 1 4 3 2 2 2 2 2 3 2 6 8 7 6 6 9 9 4 6 6 3 5 4 7 8 8 13 16 16 17 17 17 17 16 16 15 14 14
17 17 17 17 17 17 17 16 15 15 14 14 14 14 14 14 14 13 13 12 12 11 10 10 10 10 9 9 13 12 9 10 11 12 12 10 10 8 5 5 5 4 3 3 4 3 3 4 2 1 3 5 2 2 3 2 2 1 3 1 3 7 6 3 1 4 8 4 4 7 2 7 7 9 8 10 15 17 18 19 19 18 18 17 17 16 16 16
18 17 17 17 17 17 17 17 17 16 16 16 15 15 15 15 14 14 13 13 12 11 11 11 10 10 9 10 11 11 12 13 13 13 13 12 11 9 7 6 7 6 5 5 5 5 4 4 3 2 4 3 3 5 2 4 3 1 1 2 2 2 5 5 1 6 6 3 6 8 2 7 8 8 7 11 16 18 20 21 21 20 20 19 19 18 18 18
19 18 18 18 18 17 17 17 17 17 17 17 17 16 16 16 15 15 14 13 12 11 11 10 9 9 8 10 12 11 13 15 16 16 14 14 12 9 8 8 7 7 6 6 6 7 6 5 4 2 4 4 5 5 3 4 3 3 1 3 3 2 5 8 2 9 5 2 7 7 2 7 9 8 7 13 18 19 21 21 22 22 22 21 21 20 20 20
21 20 20 19 18 18 17 17 17 17 18 17 17 16 16 16 16 15 14 14 12 11 10 9 9 8 5 7 10 11 14 17 17 17 16 15 13 10 8 8 8 7 6 6 7 7 6 6 4 3 4 4 5 4 4 3 4 4 0 3 2 2 3 7 2 7 4 2 5 4 2 4 5 5 6 15 20 21 21 21 23 24 24 24 23 22 22 22
23 22 21 20 20 19 18 18 17 18 18 17 16 16 16 16 16 15 14 13 12 11 9 7 6 7 7 8 10 12 17 19 18 18 17 16 14 11 9 8 7 7 7 7 7 7 6 6 5 3 2 3 3 5 3 2 4 3 1 2 4 3 2 3 4 5 4 3 4 4 3 6 6 3 4 15 20 21 22 23 25 25 26 25 25 24 24 24
25 24 23 22 22 21 20 19 18 18 18 17 16 15 15 15 15 14 13 12 11 7 6 7 4 1 8 14 13 14 16 17 18 18 17 17 14 11 10 8 7 7 7 6 6 7 6 3 4 1 2 3 1 5 3 5 4 4 3 2 4 3 3 4 4 3 5 2 3 4 4 10 12 8 8 14 19 22 25 27 25 25 26 27 27 27 26 25
27 26 25 24 23 23 22 20 19 19 19 17 15 15 14 13 12 11 12 12 12 7 3 11 15 5 3 12 18 16 13 14 17 17 17 16 15 13 11 8 8 9 8 5 4 6 6 3 4 2 1 3 5 7 8 8 7 6 6 4 4 4 4 5 6 5 4 2 4 7 7 10 12 12 12 15 20 25 26 25 24 24 26 28 29 29 28 27
28 28 27 26 25 24 23 21 20 20 19 17 16 14 11 9 6 6 13 17 20 18 9 10 20 15 2 2 13 17 12 12 16 18 17 16 16 14 11 9 8 7 5 5 3 3 5 3 2 4 8 9 9 9 7 5 6 5 5 4 4 5 4 4 4 6 1 3 5 7 8 10 11 11 13 14 17 21 24 24 25 26 27 30 32 32 30 29
28 28 28 28 27 26 24 23 22 21 20 18 17 14 11 12 7 3 11 18 24 28 21 11 14 19 12 4 7 14 13 12 16 18 18 17 16 12 11 10 7 3 3 5 5 3 4 4 7 10 10 8 7 8 5 4 4 3 4 3 3 3 5 6 4 5 2 2 5 5 6 10 11 11 14 12 10 17 26 26 28 30 30 32 33 33 32 29
28 28 28 28 28 26 24 24 22 22 21 19 20 18 14 16 15 9 7 9 16 24 27 24 18 18 18 12 9 13 13 10 13 19 19 19 18 13 11 9 5 3 3 5 5 2 2 5 11 11 5 5 3 4 5 4 3 2 3 2 3 3 4 6 5 4 1 3 4 5 5 10 10 10 13 15 15 21 30 30 32 34 33 34 35 34 33 30
28 28 28 28 28 26 24 23 22 23 22 20 21 21 17 16 17 14 7 5 9 15 22 28 28 25 22 17 13 15 15 10 11 20 22 22 21 16 13 10 4 4 4 5 6 4 4 6 10 10 8 7 3 3 5 3 1 3 3 3 3 3 2 4 5 4 1 1 3 5 7 7 8 7 11 22 25 23 27 28 30 33 34 36 35 34 35 34
26 28 28 28 28 25 22 20 20 23 23 22 22 21 18 14 14 13 9 5 6 10 17 22 27 31 30 22 17 19 18 13 12 19 25 26 22 14 11 10 5 4 5 9 9 7 7 5 3 7 9 8 5 4 6 5 3 5 5 6 5 4 6 6 4 4 3 3 3 3 8 7 7 8 10 16 16 15 22 24 27 31 31 31 32 33 36 36
22 26 27 28 28 24 19 17 21 24 23 22 22 21 18 14 9 7 5 3 5 6 11 15 19 26 31 27 20 19 16 14 14 18 25 29 25 13 8 10 6 4 7 7 6 6 9 5 3 7 5 6 7 4 6 7 4 5 5 9 9 7 8 5 2 4 4 5 4 3 5 6 4 6 9 8 5 9 16 17 24 29 27 28 30 32 35 35
19 22 25 28 27 21 17 19 23 24 22 22 21 20 19 13 8 6 4 2 5 4 4 10 12 14 22 25 23 17 7 11 17 20 23 28 27 14 6 6 4 4 6 5 3 3 5 4 5 7 6 7 7 5 6 8 5 4 5 8 10 7 6 4 3 2 1 4 4 3 2 7 6 5 9 8 5 10 12 10 19 24 23 27 31 32 34 35
18 20 23 26 25 21 21 21 22 23 22 20 19 20 19 13 11 8 5 4 5 6 7 9 10 10 15 21 29 20 2 7 15 18 25 28 26 16 6 5 3 3 5 5 2 3 3 4 4 6 6 6 6 5 6 8 7 4 4 5 8 7 7 6 6 4 3 3 4 3 3 5 9 6 6 6 7 10 11 11 16 18 20 25 28 30 32 35
18 19 21 25 24 24 24 21 21 23 21 16 18 22 18 15 13 9 5 1 4 6 6 7 10 12 13 20 32 20 6 12 11 14 27 29 25 15 7 8 6 5 7 7 4 3 3 6 6 7 5 4 6 5 7 11 6 5 2 5 6 5 5 4 5 3 1 2 4 2 3 3 9 6 1 1 5 9 13 15 13 12 19 24 26 29 30 33
18 18 21 23 21 24 24 19 19 20 16 12 16 22 21 18 13 7 4 3 2 4 3 7 9 10 14 21 24 14 9 8 4 12 25 25 24 12 2 8 8 5 7 5 5 3 1 4 8 8 6 6 5 2 7 10 4 4 6 7 6 5 5 5 4 3 2 3 5 5 5 3 8 5 3 2 3 9 12 12 8 8 18 25 27 29 30 32
19 19 21 21 22 26 27 23 21 17 14 14 19 25 25 19 10 5 2 4 2 2 4 8 8 10 18 16 8 4 6 3 4 15 17 13 18 10 2 6 6 4 2 3 3 3 2 0 3 4 4 5 5 3 2 5 6 9 8 6 7 6 5 4 2 4 2 5 6 9 10 6 5 4 4 3 4 7 8 6 6 6 14 23 27 29 31 33
20 20 21 22 26 28 30 30 27 21 19 20 25 30 24 11 4 4 6 2 1 2 5 4 3 9 17 14 6 5 4 1 7 15 9 4 9 6 4 5 3 4 1 5 4 4 3 0 1 2 4 6 8 5 4 3 7 8 5 4 4 4 4 4 4 4 1 6 4 7 9 8 8 6 3 5 5 5 6 5 6 6 11 20 26 29 31 32
23 22 22 24 25 26 33 34 27 24 23 24 33 33 19 5 1 5 5 1 1 5 5 4 3 7 12 11 9 9 5 3 7 10 6 5 6 7 7 6 5 3 2 6 3 3 2 4 2 1 3 7 7 4 4 3 3 4 5 6 4 2 2 2 3 0 3 6 3 1 2 4 10 7 5 11 12 8 9 10 9 9 11 17 24 29 31 32
27 25 25 27 26 26 32 32 25 24 23 28 35 26 10 3 7 10 9 4 1 3 4 4 3 6 11 10 6 6 4 2 7 6 4 5 5 7 6 5 6 3 2 5 3 1 3 5 1 1 3 9 10 6 3 1 4 6 6 7 5 2 1 3 3 2 4 5 4 1 2 3 6 4 8 15 14 10 11 13 14 13 12 13 19 27 31 32
29 29 30 31 30 28 28 29 28 25 24 31 29 14 5 7 9 12 15 9 1 2 3 4 5 6 8 6 4 6 5 3 6 6 2 5 5 6 5 6 7 2 3 4 3 5 4 5 5 7 4 10 12 8 7 6 6 6 4 5 6 6 4 4 4 4 4 4 4 2 2 4 3 2 7 11 10 9 10 12 15 17 16 13 16 25 31 33
29 33 35 36 35 31 28 31 32 27 28 31 18 7 10 11 10 14 14 6 1 2 3 3 7 7 5 2 3 5 4 3 5 5 4 6 6 7 7 8 10 6 5 4 2 4 4 7 6 4 2 11 12 6 7 8 3 3 2 4 4 5 5 2 3 5 3 2 3 2 4 5 4 7 9 8 9 9 8 9 11 15 16 15 19 25 31 35
33 38 39 40 41 37 32 34 33 32 36 29 11 8 12 12 10 9 7 7 6 5 6 4 4 4 6 3 2 5 2 1 5 4 3 4 4 7 7 7 11 11 8 7 3 2 3 5 5 2 1 5 7 5 6 4 4 2 3 4 4 4 6 2 2 1 3 4 4 4 6 5 3 9 10 8 10 8 5 7 9 11 13 17 22 26 32 37
32 37 39 43 44 39 37 38 35 37 39 25 11 11 11 13 12 6 5 9 10 11 9 3 3 5 7 5 4 7 3 1 5 5 4 3 3 7 7 5 9 16 14 9 3 3 5 3 4 1 2 3 1 5 4 3 4 5 4 6 3 2 3 2 2 1 1 5 5 3 7 6 2 6 5 2 8 10 7 7 8 9 13 18 24 27 31 36
23 26 33 41 43 41 41 40 39 44 36 15 9 13 10 15 15 7 7 10 11 13 9 7 7 7 8 7 5 8 7 4 6 6 5 4 5 8 10 5 8 19 21 11 2 2 3 2 4 1 2 2 2 4 2 4 3 4 4 6 5 1 1 2 2 3 2 4 5 2 5 5 7 6 2 2 8 11 10 8 7 10 15 20 24 27 31 35
17 17 25 34 38 42 43 41 46 47 28 7 8 12 10 14 12 5 10 13 11 11 10 10 9 4 6 9 6 8 10 8 9 7 5 5 5 7 13 11 8 16 22 15 5 2 3 3 4 2 0 1 2 3 5 2 2 3 2 3 2 1 3 4 3 2 2 3 3 3 3 4 7 7 7 10 12 10 9 8 9 13 20 25 26 28 32 35
15 12 17 25 27 33 42 46 45 33 14 7 11 11 10 12 8 5 13 13 7 8 10 12 12 6 6 9 6 7 9 8 9 8 5 6 5 5 10 12 6 9 18 17 9 2 3 3 4 2 2 1 2 4 8 10 6 4 4 5 3 1 2 1 1 2 3 3 3 4 6 6 5 5 9 13 12 11 11 10 11 16 23 27 28 29 32 35
14 7 11 19 17 20 36 42 28 14 8 8 10 11 11 10 6 8 14 10 5 5 6 7 10 8 7 8 6 5 7 6 7 7 4 7 8 5 10 16 12 10 11 9 8 5 3 4 4 2 2 4 5 5 5 8 8 7 8 9 9 6 4 3 4 2 3 3 4 3 7 8 4 4 7 9 8 7 8 9 11 15 22 27 28 29 32 34
14 7 6 11 12 17 30 25 12 10 10 9 14 13 7 6 6 8 11 11 8 5 2 2 6 8 6 7 7 6 7 6 7 7 6 9 11 7 12 23 23 20 15 8 9 9 4 3 3 3 4 5 6 4 2 4 3 3 4 5 7 7 8 7 7 4 3 2 2 3 5 9 4 3 5 6 6 6 6 8 12 14 18 25 29 29 30 32
17 13 7 6 11 21 24 12 8 11 6 8 16 13 6 5 7 7 8 11 9 4 4 3 3 7 7 5 6 8 8 7 8 11 8 8 11 9 13 24 25 19 13 5 4 6 4 3 4 2 2 2 4 4 3 1 3 2 2 3 6 9 10 7 5 4 4 5 4 2 6 7 3 2 3 6 7 9 10 11 13 15 15 20 27 29 31 32
19 18 14 9 12 20 18 7 7 10 5 7 13 13 12 10 8 8 9 12 10 5 5 6 4 6 6 3 6 9 11 8 8 14 11 6 8 9 15 26 24 15 11 8 9 12 8 4 4 2 1 2 2 2 3 2 3 3 4 6 8 10 8 3 2 3 3 7 9 5 9 7 3 4 3 5 5 7 12 12 12 15 16 19 24 29 31 32
14 13 16 17 19 23 18 9 8 7 6 9 8 11 15 11 10 16 13 11 13 8 6 9 8 7 5 4 6 8 12 13 10 10 10 6 3 4 13 26 26 17 15 15 17 19 10 4 6 7 7 8 7 6 6 4 4 2 4 8 10 12 13 7 3 4 6 7 11 10 12 5 3 5 5 5 4 5 10 11 12 16 19 19 23 29 33 34
8 6 8 12 18 23 23 18 10 4 4 7 5 7 13 10 11 18 15 11 15 15 8 5 5 7 5 6 8 8 12 15 9 5 7 9 4 1 9 22 25 20 15 14 21 17 4 3 10 13 14 14 9 5 6 10 8 8 10 13 14 15 16 11 6 8 5 4 8 15 13 8 7 6 5 6 4 6 8 9 13 18 20 21 23 28 33 35
8 3 5 7 10 14 18 18 12 5 5 8 5 4 11 13 10 11 13 13 15 17 11 4 5 8 7 10 13 11 11 12 8 6 8 9 4 1 4 11 16 16 10 12 22 15 3 5 13 15 18 14 5 4 10 14 14 15 14 15 16 16 16 14 14 11 7 4 11 11 9 13 17 12 8 7 6 6 7 11 16 20 21 22 23 26 31 34
10 4 8 11 7 6 10 13 13 11 10 9 6 3 8 13 11 9 11 13 14 13 10 7 10 12 12 14 13 9 8 8 9 11 11 7 3 1 1 2 7 10 6 8 15 9 2 8 11 12 17 12 3 5 9 12 13 14 15 17 19 18 19 21 21 14 11 11 16 7 10 18 21 10 8 9 10 11 12 15 19 18 20 22 22 26 31 34
13 7 7 11 7 5 10 14 14 13 12 8 6 5 6 10 14 13 8 7 9 11 10 10 15 18 18 16 11 9 10 9 10 14 11 7 5 4 4 2 5 9 7 6 8 5 3 7 8 9 14 13 6 5 7 9 10 11 14 17 18 20 23 23 22 18 15 18 18 7 10 21 15 6 8 14 19 18 14 15 17 18 21 23 24 28 32 36
13 8 5 7 6 6 8 11 10 8 9 8 5 5 5 8 14 14 9 8 8 10 13 16 19 18 16 16 14 13 14 14 16 16 11 8 6 6 7 5 4 7 6 4 5 4 5 6 5 7 8 11 10 8 7 9 9 8 11 15 17 20 21 20 19 16 14 19 19 11 16 21 8 7 9 13 15 14 11 15 19 22 25 24 25 30 33 36
19 13 8 4 3 4 5 6 6 5 6 6 5 5 5 8 12 10 9 13 13 10 11 18 21 16 12 15 17 18 21 22 18 12 11 14 12 8 7 5 6 8 7 6 5 4 5 4 3 6 7 10 10 11 9 7 5 6 13 20 19 16 15 15 15 14 16 20 18 12 17 19 7 6 7 8 10 11 12 18 22 24 26 26 28 32 34 36
25 20 14 6 2 3 4 3 5 7 5 6 9 8 7 9 11 7 5 11 18 19 16 17 18 13 9 13 19 24 27 25 17 9 10 16 13 6 6 7 9 10 9 7 4 4 6 5 4 6 8 8 8 12 10 4 2 7 16 20 19 14 13 14 14 16 19 18 14 12 19 18 6 5 6 6 7 11 15 21 25 27 28 29 30 32 34 36
Wind_Direction
204 206 207 207 207 208 209 210 208 203 197 193 193 192 192 191 191 190 188 188 192 196 200 203 211 217 216 219 225 250 277 306 311 312 324 257 210 200 185 167 157 152 158 186 188 191 202 194 181 132 101 92 77 72 65 55 64 80 93 88 120 170 184 178 180 191 169 196 200 189 192 172 164 177 166 149 166 176 171 187 188 198 205 190 195 190 188 197
207 208 209 209 210 212 213 212 208 202 196 194 194 195 197 196 195 192 190 192 195 200 204 208 217 221 223 226 234 258 279 298 292 291 317 234 186 165 150 138 127 120 114 131 198 223 224 188 170 119 100 92 69 66 69 46 53 79 100 94 179 201 197 195 189 191 179 178 181 179 194 189 188 178 169 179 180 169 165 179 177 187 193 190 196 189 189 199
209 209 211 212 213 214 215 212 206 200 196 196 197 197 199 199 197 194 194 197 200 205 209 214 225 227 229 234 245 265 287 298 267 263 330 171 156 145 137 127 106 88 89 74 108 220 204 173 153 107 93 87 63 63 58 40 45 67 92 91 226 213 207 240 197 192 206 184 165 168 190 194 199 182 179 196 180 185 207 201 191 199 202 196 193 190 193 201
210 211 213 214 214 215 213 209 204 200 198 198 199 199 200 199 196 196 197 201 205 210 214 221 232 233 237 240 253 275 301 310 218 169 140 152 148 143 136 122 85 56 55 49 48 159 173 166 150 110 87 76 50 56 41 30 38 54 101 144 210 182 163 210 187 192 203 179 167 168 172 190 195 189 198 177 157 235 235 224 225 228 221 209 199 195 198 205
211 213 214 214 213 211 208 205 203 201 201 200 199 200 199 197 196 198 201 205 209 213 219 228 237 239 244 241 255 271 321 10 166 152 149 155 149 150 144 119 55 43 39 31 9 196 161 149 127 101 77 64 37 51 30 28 65 69 35 222 172 151 139 178 169 167 174 171 171 168 168 197 196 201 216 195 188 239 239 240 242 244 240 224 212 205 204 212
209 210 210 209 207 206 205 204 203 202 202 201 199 199 197 198 199 201 204 208 212 217 223 231 239 243 246 244 254 255 255 29 167 152 155 164 159 163 164 135 30 19 5 9 343 291 211 135 123 94 61 53 28 61 59 23 60 101 345 293 163 173 203 175 168 162 170 177 183 185 197 203 191 211 225 213 222 242 251 261 246 240 234 220 215 212 212 222
201 202 202 203 202 203 204 205 205 204 202 200 199 198 198 199 201 204 208 211 216 221 227 235 241 246 250 247 251 254 258 247 186 166 167 174 175 181 183 214 322 335 336 339 300 275 229 162 121 101 73 71 61 87 57 26 62 109 127 159 167 208 230 182 175 174 183 197 205 207 210 204 194 206 224 222 233 244 253 260 245 230 219 209 210 214 224 236
195 197 198 198 199 201 202 204 205 204 203 201 200 199 199 202 205 208 211 215 220 225 231 237 240 246 251 251 255 261 260 234 189 179 178 183 189 196 212 267 299 311 309 292 273 249 194 133 115 105 85 89 123 128 42 33 46 76 145 191 158 202 214 187 190 199 207 219 218 208 200 206 207 210 232 230 234 239 238 241 230 217 211 211 216 225 236 243
193 195 195 195 196 198 199 201 203 204 205 203 202 202 203 205 208 211 215 219 223 228 234 238 241 246 249 251 255 262 255 217 191 187 181 189 199 212 249 276 285 288 281 267 258 239 185 121 114 114 132 132 122 89 57 54 331 70 142 167 164 186 199 201 216 221 223 229 214 205 215 227 217 226 257 241 232 229 223 221 217 214 214 219 229 240 245 246
193 194 195 195 195 196 198 200 203 204 206 206 207 207 208 211 213 216 219 223 226 231 237 240 243 243 246 249 237 243 246 203 189 190 186 192 203 222 244 256 259 263 254 234 249 243 168 129 116 115 125 126 115 76 49 67 135 127 117 128 221 242 247 231 231 229 230 235 224 214 234 244 198 203 251 234 221 219 216 213 214 216 220 227 236 242 245 241
195 194 196 197 196 196 198 201 204 206 208 210 211 212 214 217 219 220 222 226 228 232 237 240 245 243 245 242 218 219 229 196 190 192 192 196 205 212 216 210 210 194 153 171 240 239 162 149 136 131 135 130 118 57 37 89 113 103 70 312 291 306 291 247 231 233 227 239 237 220 243 278 162 193 238 224 211 214 214 213 215 217 223 229 233 237 238 228
204 202 200 199 200 199 200 202 205 208 210 212 215 216 218 221 223 225 227 229 229 232 236 239 243 243 243 242 233 233 225 196 195 197 198 201 205 205 213 221 205 183 172 164 218 236 198 180 166 154 164 155 145 59 77 117 101 67 63 312 302 342 322 249 232 230 207 226 238 200 279 292 214 221 233 215 205 206 210 213 216 217 221 226 230 233 230 220
215 213 210 207 206 205 204 205 207 209 211 213 216 217 220 223 224 227 229 231 232 233 235 236 240 241 242 245 243 239 223 207 202 202 202 205 208 215 229 226 213 210 214 208 213 224 209 197 190 166 151 153 158 129 131 101 73 38 62 59 318 354 330 269 293 208 189 218 202 159 258 277 254 243 216 198 201 199 204 212 216 218 220 225 228 230 224 217
222 222 221 218 216 214 213 213 213 213 215 216 217 219 222 225 226 227 230 232 233 234 235 236 237 237 239 244 248 239 224 217 211 208 209 211 214 225 234 221 215 223 231 225 215 214 208 203 210 184 156 154 148 138 104 27 40 343 15 34 9 352 277 292 358 157 166 227 187 151 219 265 272 265 207 199 205 202 207 211 215 219 221 224 226 225 221 217
226 226 226 225 224 222 221 221 220 221 221 221 221 222 224 227 228 228 229 232 233 235 237 236 234 234 242 249 248 239 227 223 218 213 213 217 223 231 227 212 215 225 230 225 213 214 214 209 208 163 141 143 133 119 32 0 17 27 341 301 339 179 260 309 250 168 162 212 175 149 225 267 273 274 229 208 205 207 213 214 216 220 222 223 225 223 220 219
229 228 228 228 228 227 228 227 228 229 228 227 226 224 226 228 229 228 230 231 232 235 235 237 234 230 247 255 244 237 230 223 219 216 215 219 225 228 221 214 220 225 223 217 211 212 210 198 170 133 141 142 122 94 47 6 341 359 122 241 271 183 267 322 264 202 194 142 177 188 229 264 280 290 227 201 202 207 213 219 220 222 224 224 225 224 220 220
232 231 231 231 230 231 230 231 234 235 235 234 231 228 228 229 229 229 229 228 230 230 228 230 234 237 250 253 243 237 230 223 219 216 216 220 223 222 219 218 217 215 208 201 201 197 193 175 148 142 108 88 102 97 70 307 284 308 347 239 241 198 207 297 302 248 189 137 206 221 230 245 261 304 198 196 202 207 214 224 225 224 225 225 226 225 223 223
234 233 233 233 234 234 233 235 238 240 241 239 236 232 230 229 229 227 225 224 219 214 226 216 193 254 251 237 232 233 230 223 218 215 215 215 216 216 213 212 209 199 186 185 188 177 175 148 123 119 32 33 107 119 156 228 212 199 197 207 242 227 209 247 286 236 164 144 217 199 239 255 262 273 236 212 207 211 221 228 229 229 226 225 226 226 226 227
234 234 234 234 235 236 236 237 240 242 242 239 236 231 229 229 227 226 223 216 201 184 216 210 195 176 245 228 225 229 229 218 211 210 210 208 207 206 199 197 197 183 164 158 183 169 156 108 86 99 197 222 202 172 197 207 171 171 179 163 182 209 241 238 252 253 183 173 227 211 228 248 259 265 248 227 215 218 229 234 234 234 230 228 227 227 228 230
235 234 234 233 234 236 238 239 242 243 240 237 230 222 218 206 198 228 219 215 214 211 215 213 208 208 216 244 220 220 218 208 205 203 202 203 200 193 185 181 177 175 166 158 177 167 150 153 165 195 213 211 202 198 200 164 140 134 131 151 186 197 259 256 255 295 256 170 244 230 229 247 252 258 258 239 218 222 232 236 236 234 231 230 228 228 229 231
237 236 234 233 232 234 237 239 242 242 239 235 222 212 205 193 187 231 214 220 230 226 226 232 219 218 228 265 223 212 204 194 198 199 198 197 190 181 180 173 155 170 204 146 126 121 145 183 218 219 217 203 196 199 182 128 130 110 121 182 235 203 248 256 245 308 1 164 264 263 250 257 250 253 264 248 207 225 233 230 235 234 231 232 230 228 228 229
238 238 237 235 232 233 235 238 240 240 237 230 219 213 212 211 215 226 218 235 247 237 233 233 231 227 225 232 225 207 199 188 193 197 195 188 183 186 179 164 152 172 164 117 105 108 181 226 234 224 187 133 157 183 178 173 155 119 118 166 249 235 262 278 279 316 22 172 266 295 274 260 256 257 264 252 228 236 240 235 238 238 232 231 229 225 226 226
239 239 238 237 233 231 233 235 237 239 235 226 222 218 217 220 221 223 233 276 271 249 237 233 234 231 222 221 218 202 198 195 192 192 191 185 184 190 179 163 165 143 134 161 161 168 203 245 242 211 158 140 158 131 144 168 204 184 162 169 233 237 237 271 288 316 1 210 263 299 289 270 263 262 262 255 245 243 249 246 247 244 237 236 233 230 228 225
241 239 238 237 235 232 231 232 233 237 234 226 226 222 216 220 220 223 233 272 288 253 242 238 234 232 225 221 216 204 203 209 201 191 190 186 180 183 186 177 154 131 178 196 186 197 218 240 225 165 162 170 162 123 141 164 237 232 201 195 211 212 213 230 286 323 343 342 1 338 300 278 248 245 251 256 251 250 252 249 248 246 241 240 237 232 229 227
242 241 240 236 235 232 226 222 226 233 233 228 228 218 210 211 208 214 220 271 292 255 245 237 230 234 228 221 215 204 206 219 217 201 193 191 183 171 184 186 167 179 203 191 189 232 242 233 130 120 146 168 162 169 176 174 210 261 225 205 210 212 222 235 326 3 358 322 340 19 292 280 269 248 252 264 278 262 253 245 246 247 240 234 231 228 225 225
245 243 241 236 234 225 212 216 225 230 230 231 227 209 201 198 179 180 155 30 288 232 201 208 213 227 217 209 199 185 208 234 219 208 198 196 193 178 164 175 169 201 185 156 184 248 241 212 132 123 142 162 179 210 210 176 169 259 246 205 205 201 210 213 156 93 277 259 296 59 206 275 291 240 237 247 255 261 259 248 248 246 237 228 226 224 222 220
250 243 239 236 230 210 202 217 226 225 223 228 221 199 190 177 158 162 127 17 280 186 150 181 188 189 196 196 185 175 204 201 193 207 200 195 197 192 190 180 150 197 159 130 234 255 177 169 108 112 129 147 181 217 215 168 149 236 253 177 176 182 197 193 161 182 234 260 316 37 122 276 283 253 234 228 232 264 273 263 254 241 229 226 222 221 220 219
253 244 237 235 228 208 202 214 222 220 218 221 209 190 175 159 154 142 117 311 260 147 145 176 169 173 178 181 182 177 140 146 156 200 195 193 197 196 213 203 169 181 170 152 228 264 147 175 174 151 141 166 195 216 184 156 157 245 218 126 141 158 167 143 131 177 322 358 294 263 125 266 276 262 289 284 225 254 261 256 257 237 223 221 217 219 219 219
249 243 234 231 227 211 202 211 222 219 213 205 192 180 162 151 150 115 92 229 206 115 143 160 155 165 156 163 181 175 138 146 140 180 183 189 195 192 219 202 175 164 187 191 222 250 97 191 193 166 164 195 203 232 174 163 181 191 126 91 78 72 74 79 100 116 48 315 243 204 162 239 275 243 138 64 211 236 251 255 268 250 228 220 214 215 217 216
243 239 232 226 223 211 200 208 217 203 186 180 174 168 156 149 140 113 167 229 208 114 129 153 164 164 151 152 183 178 141 150 113 150 167 182 188 187 110 165 159 129 192 284 251 246 340 85 183 175 184 178 140 79 140 165 151 134 107 67 55 36 38 51 41 76 51 279 226 190 181 186 278 271 171 181 208 219 240 263 285 264 228 219 214 214 214 213
236 233 230 224 223 213 200 206 209 187 171 171 165 159 153 141 109 164 200 244 342 138 120 151 180 153 156 158 175 184 156 131 137 147 154 154 173 179 125 144 137 99 312 286 275 312 334 21 203 207 180 134 106 72 36 95 134 123 88 85 81 352 9 25 354 51 166 260 231 196 186 180 232 259 223 245 260 228 214 231 259 253 228 219 214 213 213 212
226 225 229 229 228 217 206 210 206 181 172 169 164 160 152 134 216 214 215 46 3 197 154 169 195 159 167 171 178 179 154 152 169 162 159 151 169 188 188 189 167 130 257 239 239 336 279 239 273 318 191 164 129 84 36 36 118 116 100 120 122 326 358 355 312 50 227 259 292 265 179 202 237 255 265 263 266 248 225 226 241 252 244 229 217 213 211 209
224 218 224 229 232 224 214 212 200 181 177 171 166 160 143 168 202 211 216 192 207 210 133 130 155 157 165 169 187 173 139 177 178 168 168 151 175 208 219 217 177 154 203 194 187 192 257 296 306 96 242 197 169 154 168 196 180 166 145 149 156 145 178 261 260 273 265 269 299 289 203 251 272 277 249 250 261 262 246 241 247 257 257 243 226 216 211 208
231 224 223 227 234 233 223 213 196 183 179 173 168 158 154 196 204 209 214 208 206 28 74 113 125 139 165 174 206 169 150 218 174 153 157 141 168 217 228 230 208 156 99 145 175 179 217 288 203 181 204 187 185 188 171 140 161 187 158 150 166 161 177 214 210 224 255 283 296 265 196 206 214 252 240 247 276 285 268 255 251 254 253 242 226 214 209 206
238 232 226 225 229 229 222 211 196 184 179 175 173 177 181 195 212 215 212 191 122 26 35 77 109 130 194 247 279 192 172 217 171 146 169 169 188 204 197 209 201 165 133 173 216 166 202 267 234 218 167 167 182 189 134 111 148 217 116 124 190 184 170 187 200 184 174 291 287 215 224 220 212 268 267 257 271 273 267 264 250 245 239 222 211 208 207 206
239 233 225 220 223 223 215 206 196 187 182 175 179 206 194 206 213 206 193 158 157 141 100 76 89 130 205 229 276 226 208 119 152 154 199 202 229 210 203 214 191 180 176 174 185 156 178 273 281 345 32 177 182 167 141 144 179 169 141 180 202 165 142 146 255 106 101 269 266 193 242 288 308 278 272 254 257 260 258 254 238 229 220 206 204 206 207 207
231 226 218 217 223 226 215 204 194 191 188 182 191 202 202 221 212 179 167 160 149 142 133 160 182 164 190 200 215 208 199 103 154 174 195 192 253 211 205 231 188 191 199 184 194 201 168 258 288 118 193 249 155 119 89 52 121 131 182 198 155 82 102 114 259 327 77 258 267 209 240 270 265 266 301 314 256 257 251 239 233 224 210 203 204 206 208 208
230 226 222 223 227 227 216 203 192 192 194 196 212 207 211 222 214 192 171 154 138 150 168 203 194 174 185 193 200 187 180 181 175 184 182 182 244 206 183 203 195 197 204 194 215 244 157 234 289 81 176 282 41 121 100 14 70 122 175 176 136 140 199 134 202 228 207 248 275 276 259 247 214 226 287 256 233 242 241 224 223 223 209 208 208 206 207 207
231 231 237 235 230 226 220 206 194 193 196 203 209 210 222 219 216 197 164 158 154 167 187 210 201 181 185 186 177 173 185 189 172 175 188 189 230 200 177 188 200 199 198 187 191 226 148 205 267 346 322 309 33 168 185 199 17 49 106 151 128 147 180 164 173 188 187 230 267 301 302 253 223 207 203 220 225 226 227 216 219 223 212 209 208 204 204 204
218 222 247 243 230 227 221 206 197 196 201 211 204 212 228 217 210 200 184 176 173 184 198 209 201 186 188 189 176 172 192 196 173 182 204 193 209 222 187 182 173 185 189 188 194 171 118 206 242 327 339 179 192 212 190 181 179 158 156 171 181 135 110 164 211 127 137 177 219 272 281 262 244 204 198 217 225 216 213 214 221 222 215 212 210 205 204 204
206 220 254 235 224 222 212 203 198 200 209 213 213 221 230 224 213 211 213 219 232 215 211 211 203 192 178 186 197 180 180 189 183 192 217 203 208 234 196 181 165 150 162 186 208 194 167 192 183 175 215 204 226 246 211 198 193 181 186 188 182 171 141 177 231 184 143 187 185 205 264 262 242 206 207 217 227 225 218 223 236 230 217 214 211 206 205 204
200 223 254 219 210 203 198 198 205 206 205 211 215 215 217 225 219 206 214 228 244 252 262 227 208 199 178 182 193 170 162 181 190 196 220 215 211 220 196 184 173 159 154 175 206 188 144 120 150 190 214 217 246 277 263 226 183 146 201 187 167 179 178 188 217 198 157 216 163 133 272 273 254 212 227 238 256 276 262 238 248 247 227 219 214 207 206 206
204 218 226 208 211 201 193 199 216 205 216 237 226 224 219 220 216 195 196 212 221 223 218 232 206 202 205 181 167 169 175 188 196 200 217 224 218 224 199 183 173 162 159 172 194 162 122 132 177 235 305 295 305 323 328 305 113 121 233 179 174 199 195 191 206 169 169 211 167 148 258 265 283 273 268 278 281 280 268 247 246 250 239 227 220 211 207 208
213 223 224 225 222 204 196 203 214 207 219 233 234 233 230 236 227 207 204 205 206 194 205 231 229 209 217 156 154 184 187 192 209 207 211 221 217 220 199 184 177 169 179 189 172 166 172 177 160 156 315 316 323 301 267 231 170 194 219 194 195 199 182 164 105 119 214 205 165 190 243 238 286 312 311 319 314 284 267 259 253 250 242 233 225 217 211 209
215 227 226 224 217 208 210 216 207 212 213 210 224 223 222 239 233 221 223 214 212 206 201 225 218 198 203 174 177 192 191 202 219 206 208 228 233 218 196 190 186 185 201 200 173 166 173 173 164 182 213 216 213 218 213 186 166 200 209 193 198 195 185 184 162 181 228 190 163 207 240 238 309 303 298 316 325 291 268 259 253 248 242 236 228 221 215 211
203 212 212 210 207 210 228 238 223 217 215 202 216 213 213 228 230 224 226 220 218 215 211 235 203 180 189 193 200 205 205 216 221 181 201 216 219 245 196 195 195 199 211 195 167 159 148 195 191 202 217 218 216 208 142 130 155 203 203 192 197 200 193 189 199 209 201 146 196 224 233 249 265 250 255 281 270 259 266 259 251 249 244 239 231 224 220 216
209 200 180 187 197 207 231 245 234 222 203 190 187 187 205 219 229 223 217 217 221 216 217 237 195 186 189 193 207 214 206 214 214 198 211 206 197 332 195 194 203 207 212 183 168 157 93 211 204 213 224 222 196 162 151 148 176 202 196 192 199 199 191 193 211 208 147 157 239 225 200 241 251 230 222 252 252 246 253 250 248 248 246 243 233 226 224 220
220 227 191 188 192 193 213 225 219 216 214 200 191 177 198 214 221 212 209 218 223 214 213 223 214 212 206 198 207 213 196 203 214 217 221 201 154 77 150 215 220 204 189 177 179 164 126 211 210 212 224 228 157 158 180 170 185 199 194 197 199 193 193 201 213 205 164 205 242 201 165 230 245 224 198 217 224 226 232 242 247 248 250 248 235 224 223 221
226 252 217 196 204 210 202 199 194 203 213 204 198 202 197 210 217 217 211 212 222 217 210 217 221 221 218 211 209 208 202 203 213 219 216 184 161 164 170 227 228 196 168 167 192 185 170 212 206 191 219 232 203 184 195 181 189 202 203 205 200 196 199 204 212 209 199 226 244 222 224 247 244 197 197 215 222 227 232 241 246 247 251 249 236 226 223 221
224 239 225 201 222 234 209 190 174 186 206 197 198 211 197 208 220 223 217 199 207 213 209 221 230 224 220 221 219 221 219 212 216 220 201 176 185 194 193 196 179 176 176 181 203 199 189 206 180 158 213 234 207 189 195 192 195 203 215 218 207 202 204 206 212 210 210 235 243 237 255 261 234 174 212 219 217 222 226 233 238 244 249 246 235 229 224 220
229 236 235 214 222 221 204 185 167 181 199 186 192 199 191 214 220 221 228 223 223 222 205 218 232 229 220 222 222 228 230 224 224 223 191 191 201 193 196 199 148 152 180 192 188 181 186 200 139 141 212 231 201 184 194 197 191 222 239 232 212 197 199 206 212 205 203 225 234 231 248 253 224 171 210 206 199 208 219 228 234 241 244 241 236 232 227 222
229 233 235 232 242 213 202 192 184 197 202 186 194 195 194 217 214 200 232 239 232 233 227 224 232 233 223 222 222 228 234 235 237 237 208 208 208 170 157 171 158 160 175 179 176 172 175 182 159 166 210 232 191 175 180 165 164 240 245 229 205 191 194 202 213 212 206 213 219 219 237 245 221 156 193 203 203 212 223 230 235 239 240 239 238 234 229 225